Погода в Порое

Россия / Липецкая область     52°52′35″N   39°28′12″E
темп.,
°C
ветер,
м/с
пор.,
м/с
влажн.,
%
обл.,
%
осадки,
мм/ч
давл.,
гПа
погр.,
м
9 мая, вс
вс900:00+10юз4896100 0.3 1005284
03:00+9ююз3797100 0.5 1005307
06:00+7зюз5996100 1.5 1005354
09:00+7зсз4695100 3.4 1007679
12:00+4сз71096100 0.5 1011745
15:00+4сз71296100 0.7 1014847
18:00+5сз71292100 0.2 1016867
21:00+5ссз81489100 0.3 10181177
10 мая, пн
пн1000:00+5ссз7158563 0.1 1019999
03:00+4ссз6148859 0.1 1021486
06:00+5с7167969 0.0 1022730
09:00+8с91565100 0.0 10221200
12:00+10ссв91360100 0.0 10221162
15:00+9ссв101665100 0.0 1021922
18:00+9ссв91778100 0.1 1021751
21:00+9ссв91983100 0.1 1021569
11 мая, вт
вт1100:00+8св71786100 0.0 1021569
03:00+8ссв81890100 0.1 1021491
06:00+9ссв81792100 0.1 1020464
09:00+14св9158094 0.1 1020700
12:00+13вюв61185100 0.0 1022721
15:00+13юв687776 0.5 1023951
18:00+14вюв48651 0.0 10241043
21:00+9вюв35820 0.0 102779
12 мая, ср
ср1200:00+7юв228954 0.0 102713
03:00+7св2290100 0.0 102723
06:00+8ссв3686100 0.0 1025158
09:00+8св4896100 0.2 1023384
12:00+8з2398100 2.6 1021163
15:00+9юз458963 5.0 1021424
18:00+12юв367713 0.0 1021813
21:00+9всв41092100 0.0 1021181
13 мая, чт
чт1300:00+9в51193100 0.0 1021234
03:00+8в4119642 0.0 1020217
06:00+10юв379719 0.0 1020176
09:00+16юв3479100 0.0 1019464
12:00+19ю335860 0.0 10191232
15:00+21ю235213 0.0 10181594
18:00+20юв23635 0.0 1018154
21:00+15вюв3490100 0.0 101954